Rochelle, IL

8:41 PM CST on November 16, 2019 (GMT -0600)
Rochelle

Weather History for KRPJ - August, 2019

Change the Weather History Date:

Thursday, August 15, 2019

  Actual Average (WUND) Record (WUND)
Temperature  
Mean Temperature 68 °F -  
Max Temperature 77 °F - - (-1)
Min Temperature 58 °F - - (-1)
Cooling Degree Days 2    
Growing Degree Days 18 (Base 50)    
Moisture  
Dew Point 59 °F    
Average Humidity 78    
Maximum Humidity 100    
Minimum Humidity 45    
Precipitation  
Precipitation 0.00 in - - ()
Sea Level Pressure  
Sea Level Pressure 30.02 in    
Wind  
Wind Speed 4 mph (North)    
Max Wind Speed 9 mph    
Max Gust Speed -    
Visibility 10 miles    
Events      
Averages and records for this station are not official NWS values.
T = Trace of Precipitation, MM = Missing Value Source: NWS Daily Summary

Daily Weather History Graph

Daily Weather History Graph

Search for Another Location

Airport or City:

Astronomy

Aug. 15, 2019 Rise Set
Actual Time 6:04 AM CDT 7:56 PM CDT
Civil Twilight 5:34 AM CDT 8:26 PM CDT
Nautical Twilight 4:57 AM CDT 9:03 PM CDT
Astronomical Twilight 4:17 AM CDT 9:42 PM CDT
Moon 8:25 PM CDT (8/15) 5:57 AM CDT (8/15)
Length of Visible Light 14h 52m
Length of Day
13h 52m
Full, 100% of the Moon is Illuminated
Aug 15
Full
Aug 23
Last Quarter
Aug 30
New
Sep 5
First Quarter
Sep 13
Full

Hourly Weather History & Observations

Time (CDT) Temp. Dew Point Humidity Pressure Visibility Wind Dir Wind Speed Gust Speed Precip Events Conditions
12:15 AM 64.4 °F 63.0 °F 95% 30.02 in 10.0 mi NNE 5.8 mph - N/A   Overcast
12:35 AM 63.5 °F 62.2 °F 96% 30.02 in 10.0 mi North 4.6 mph - N/A   Scattered Clouds
12:55 AM 62.8 °F 61.0 °F 94% 30.02 in 10.0 mi NNE 4.6 mph - N/A   Clear
1:15 AM 62.6 °F 60.4 °F 93% 30.03 in 10.0 mi Calm Calm - N/A   Clear
1:35 AM 61.9 °F 60.3 °F 94% 30.02 in 10.0 mi North 4.6 mph - N/A   Clear
1:55 AM 61.7 °F 59.5 °F 93% 30.02 in 10.0 mi NNW 3.5 mph - N/A   Clear
2:15 AM 61.2 °F 59.9 °F 96% 30.02 in 10.0 mi North 3.5 mph - N/A   Clear
2:35 AM 60.8 °F 59.5 °F 96% 30.02 in 10.0 mi NW 3.5 mph - N/A   Clear
2:55 AM 60.1 °F 59.2 °F 97% 30.02 in 10.0 mi NW 4.6 mph - N/A   Clear
3:15 AM 59.9 °F 59.4 °F 98% 30.02 in 10.0 mi NW 4.6 mph - N/A   Clear
3:35 AM 59.7 °F 59.2 °F 98% 30.02 in 10.0 mi NW 4.6 mph - N/A   Clear
3:55 AM 59.4 °F 59.0 °F 99% 30.02 in 10.0 mi NNW 4.6 mph - N/A   Clear
4:15 AM 59.2 °F 58.8 °F 99% 30.02 in 10.0 mi NNW 3.5 mph - N/A   Clear
4:35 AM 58.8 °F 58.3 °F 98% 30.02 in 10.0 mi Calm Calm - N/A   Clear
4:55 AM 58.1 °F 58.1 °F 100% 30.02 in 10.0 mi Calm Calm - N/A   Clear
5:15 AM 58.3 °F 58.1 °F 99% 30.02 in 10.0 mi NNW 3.5 mph - N/A   Clear
5:35 AM 58.3 °F 57.7 °F 98% 30.02 in 10.0 mi Calm Calm - N/A   Clear
5:55 AM 58.1 °F 57.6 °F 98% 30.03 in 10.0 mi NNW 3.5 mph - N/A   Clear
6:15 AM 58.5 °F 57.9 °F 98% 30.03 in 10.0 mi North 3.5 mph - N/A   Clear
6:35 AM 58.6 °F 58.1 °F 98% 30.03 in 10.0 mi North 5.8 mph - N/A   Clear
6:55 AM 59.0 °F 58.3 °F 97% 30.04 in 10.0 mi NNW 3.5 mph - N/A   Clear
7:15 AM 60.1 °F 59.0 °F 96% 30.04 in 10.0 mi North 6.9 mph - N/A   Clear
7:35 AM 61.3 °F 59.4 °F 93% 30.05 in 10.0 mi North 4.6 mph - N/A   Clear
7:55 AM 62.4 °F 59.7 °F 91% 30.05 in 10.0 mi North 4.6 mph - N/A   Clear
8:15 AM 63.7 °F 59.9 °F 87% 30.05 in 10.0 mi North 6.9 mph - N/A   Clear
8:35 AM 64.6 °F 60.4 °F 86% 30.06 in 10.0 mi North 8.1 mph - N/A   Clear
8:55 AM 65.5 °F 61.0 °F 85% 30.06 in 10.0 mi NNW 6.9 mph - N/A   Clear
9:15 AM 67.1 °F 61.2 °F 81% 30.06 in 10.0 mi North 8.1 mph - N/A   Clear
9:35 AM 68.4 °F 61.2 °F 78% 30.06 in 10.0 mi NNW 6.9 mph - N/A   Clear
9:55 AM 69.4 °F 60.4 °F 73% 30.06 in 10.0 mi NNW 9.2 mph - N/A   Clear
10:15 AM 70.3 °F 58.8 °F 67% 30.05 in 10.0 mi North 9.2 mph - N/A   Clear
10:35 AM 70.7 °F 56.7 °F 61% 30.04 in 10.0 mi NNE 6.9 mph - N/A   Clear
10:55 AM 71.8 °F 56.5 °F 58% 30.04 in 10.0 mi NE 9.2 mph - N/A   Clear
11:15 AM 72.5 °F 55.9 °F 56% 30.05 in 10.0 mi North 5.8 mph - N/A   Clear
11:35 AM 72.9 °F 55.6 °F 55% 30.05 in 10.0 mi North 5.8 mph - N/A   Clear
11:55 AM 73.4 °F 55.0 °F 52% 30.05 in 10.0 mi North 6.9 mph - N/A   Clear
12:15 PM 74.3 °F 55.6 °F 52% 30.05 in 10.0 mi North 6.9 mph - N/A   Clear
12:35 PM 74.3 °F 53.8 °F 49% 30.04 in 10.0 mi North 4.6 mph - N/A   Clear
12:55 PM 75.6 °F 56.5 °F 51% 30.05 in 10.0 mi NNE 6.9 mph - N/A   Clear
1:15 PM 75.4 °F 55.4 °F 50% 30.04 in 10.0 mi NNE 8.1 mph - N/A   Clear
1:35 PM 75.6 °F 55.9 °F 50% 30.04 in 10.0 mi NE 5.8 mph - N/A   Clear
1:55 PM 75.7 °F 54.3 °F 47% 30.03 in 10.0 mi Calm Calm - N/A   Clear
2:15 PM 76.3 °F 55.8 °F 49% 30.03 in 10.0 mi NNW 4.6 mph - N/A   Clear
2:35 PM 74.7 °F 53.6 °F 48% 30.03 in 10.0 mi NE 4.6 mph - N/A   Clear
2:55 PM 77.0 °F 55.4 °F 47% 30.03 in 10.0 mi NNE 4.6 mph - N/A   Scattered Clouds
3:15 PM 76.3 °F 55.4 °F 48% 30.03 in 10.0 mi Calm Calm - N/A   Scattered Clouds
3:35 PM 76.8 °F 54.7 °F 46% 30.02 in 10.0 mi Calm Calm - N/A   Clear
3:55 PM 77.4 °F 55.9 °F 47% 30.02 in 10.0 mi North 4.6 mph - N/A   Clear
4:15 PM 77.2 °F 54.5 °F 45% 30.02 in 10.0 mi WSW 4.6 mph - N/A   Scattered Clouds
4:35 PM 77.0 °F 56.1 °F 48% 30.01 in 10.0 mi West 6.9 mph - N/A   Scattered Clouds
4:55 PM 76.3 °F 55.6 °F 49% 30.01 in 10.0 mi WNW 4.6 mph - N/A   Scattered Clouds
5:15 PM 76.6 °F 56.5 °F 50% 30.01 in 10.0 mi WNW 4.6 mph - N/A   Mostly Cloudy
5:35 PM 76.1 °F 55.8 °F 49% 30.01 in 10.0 mi Calm Calm - N/A   Scattered Clouds
5:55 PM 75.6 °F 55.0 °F 49% 29.99 in 10.0 mi Calm Calm - N/A   Clear
6:15 PM 74.3 °F 59.5 °F 60% 29.99 in 10.0 mi Calm Calm - N/A   Clear
6:55 PM 71.1 °F 63.7 °F 77% 29.99 in 10.0 mi SE 3.5 mph - N/A   Clear
7:10 PM 70.3 °F 64.9 °F 83% 29.99 in 10.0 mi Calm Calm - N/A   Clear
7:35 PM 70.2 °F 62.6 °F 77% 29.99 in 10.0 mi Calm Calm - N/A   Clear
7:55 PM 68.5 °F 62.6 °F 81% 29.99 in 10.0 mi SSE 3.5 mph - N/A   Clear
8:15 PM 67.6 °F 61.7 °F 81% 29.98 in 10.0 mi Calm Calm - N/A   Clear
8:35 PM 66.2 °F 63.0 °F 89% 29.99 in 10.0 mi Calm Calm - N/A   Clear
8:55 PM 65.3 °F 62.8 °F 92% 29.99 in 10.0 mi Calm Calm - N/A   Clear
9:15 PM 63.9 °F 62.2 °F 94% 29.99 in 10.0 mi Calm Calm - N/A   Clear
9:35 PM 63.5 °F 62.1 °F 95% 29.99 in 10.0 mi Calm Calm - N/A   Clear
9:55 PM 63.0 °F 62.1 °F 97% 29.99 in 10.0 mi Calm Calm - N/A   Clear
10:15 PM 62.6 °F 60.8 °F 94% 29.99 in 10.0 mi SE 4.6 mph - N/A   Clear
10:35 PM 60.8 °F 60.1 °F 97% 30.00 in 10.0 mi Calm Calm - N/A   Clear
10:55 PM 61.2 °F 60.8 °F 99% 30.01 in 10.0 mi Calm Calm - N/A   Clear
11:15 PM 61.3 °F 60.6 °F 97% 30.01 in 10.0 mi ESE 6.9 mph - N/A   Clear
11:35 PM 61.2 °F 59.2 °F 93% 30.01 in 10.0 mi East 5.8 mph - N/A   Clear
11:55 PM 60.8 °F 59.2 °F 94% 30.00 in 10.0 mi SE 4.6 mph - N/A   Clear